Regional Weather Roundup
Issued by NWS

Home | Current Version | Previous Version | Text Only | Print | Product List | Glossary Off
Versions: 1 2 3 4 5 6 7 8 9 10 11 12 13 14 15 16 17 18 19 20 21 22 23 24 25 26 27 28 29 30 31 32 33 34 35 36 37 38 39 40 41 42 43 44 45 46 47 48 49 50

000
ASUS43 KIND 250159
RWRIN

WEATHER ROUNDUP FOR INDIANA
NATIONAL WEATHER SERVICE INDIANAPOLIS IN
900 PM EST SAT FEB 24 2018

NOTE: "FAIR" INDICATES FEW OR NO CLOUDS BELOW 12,000 FEET WITH NO
SIGNIFICANT WEATHER AND/OR OBSTRUCTIONS TO VISIBILITY.

* - STATION DOES NOT REPORT WEATHER SUCH AS PRECIPITATION OR FOG.

+ - STATION NOT QUALITY CONTROLLED BY THE NATIONAL WEATHER SERVICE.
    USE DATA WITH CAUTION...ESPECIALLY DEWPOINT AND RELATIVE
    HUMIDITY OBSERVATIONS.

INZ001>003-010>013-019-020-250300-
NORTHWEST INDIANA

CITY           SKY/WX    TMP DP  RH WIND       PRES   REMARKS
GARY /AIRPORT/ CLOUDY    46  43  87 SE14G26   29.67F
MONTICELLO +   LGT RAIN  47  46  96 SE12      29.71F

$$

LMZ046-743>745-250300-
SOUTHERN LAKE MICHIGAN

STATION/POSITION TIME  TEMP    WIND        PRES    WAVE
                       AIR SEA DIR/SP/G            HT
                 (UTC) (F)     (DEG/KT/KT) (MB)    (FT)
BURNS HARBOR     0140   44     120/ 16/ 28 1005.8F
MICHIGAN CITY    0130   42     110/ 20/ 25   N/A

$$

INZ004-005-014>016-021>024-250300-
NORTH CENTRAL INDIANA

CITY           SKY/WX    TMP DP  RH WIND       PRES   REMARKS
GOSHEN         CLOUDY    39  37  92 SE15G24   29.80F WCI  31
PERU/GRISSOM   LGT RAIN  46  46 100 SE18G29   29.74F
SOUTH BEND     LGT RAIN  38  36  92 E21G31    29.75F WCI  28
WARSAW +       CLOUDY    37  37 100 N13       29.80F FOG     WCI  29

$$

INZ006>009-017-018-025>027-250300-
NORTHEAST INDIANA

CITY           SKY/WX    TMP DP  RH WIND       PRES   REMARKS
AUBURN +       LGT RAIN  36  36 100 E14G22    29.85F WCI  27
FORT WAYNE     LGT RAIN  41  40  96 E14       29.83F FOG
KENDALLVILLE + LGT RAIN  36  36 100 E12G18    29.82F WCI  28

$$

INZ028-029-035-036-043>045-051>053-250300-
WEST CENTRAL INDIANA

CITY           SKY/WX    TMP DP  RH WIND       PRES   REMARKS
GREENCASTLE +  RAIN      50  50 100 SE9       29.74F
LAFAYETTE      LGT RAIN  50  49  96 SE12      29.68F
TERRE HAUTE    LGT RAIN  53  52  96 E16       29.67F

$$

INZ030>032-037>040-046>048-054>057-064-065-250300-
CENTRAL INDIANA

CITY           SKY/WX    TMP DP  RH WIND       PRES   REMARKS
COLUMBUS       LGT RAIN  52 N/A N/A E8        29.77F FOG
INDIANAPOLIS   RAIN      50  50 100 E8        29.77F FOG
-EAGLE CREEK   HVY RAIN  51  49  92 E8        29.75F FOG
KOKOMO +       LGT RAIN  47  47 100 SE18      29.78F
MT COMFORT *+  CLOUDY    50  50 100 SE6       29.78F
SHELBYVILLE    HVY RAIN  52  50  93 E14       29.76F FOG

$$

INZ033-034-041-042-049-050-058-059-250300-
EAST CENTRAL INDIANA

CITY           SKY/WX    TMP DP  RH WIND       PRES   REMARKS
MUNCIE         RAIN      51  48  89 SE12      29.80F FOG
RICHMOND +     RAIN      46  46 100 E12       29.82F

$$

INZ060-061-067>069-081>083-085>088-250300-
SOUTHWEST INDIANA

CITY           SKY/WX    TMP DP  RH WIND       PRES   REMARKS
EVANSVILLE     HVY RAIN  59  59 100 SW17G31   29.73F FOG
HUNTINGBURG +  HVY RAIN  58  57  97 SW16G32   29.77R FOG

$$

INZ062-063-066-070>080-084-089>092-250300-
SOUTH CENTRAL AND SOUTHEAST INDIANA

CITY           SKY/WX    TMP DP  RH WIND       PRES   REMARKS
BLOOMINGTON    RAIN      52  52 100 SE8       29.75F FOG
FRENCH LICK *+ CLOUDY    54 N/A N/A E9        29.71F
SEYMOUR +      RAIN      54  54 100 SW3       29.78F

$$




USA.gov is the U.S. government's official web portal to all federal, state and local government web resources and services.